Hourly Data Report for October 31, 2015

All times are specified in Local Standard Time (LST). Add 1 hour to adjust for Daylight Saving Time where and when it is observed.

HALL BEACH A
NUNAVUT

68°46'33.000" N
81°14'33.000" W
9.10 m
2402354
71293
YUX

Download Data

Hourly Data (October 2015)
Hourly Data Report for October 31, 2015
Temp Definition
°C
Dew Point Temp Definition
°C
Rel Hum Definition
%
Wind Dir Definition
10's deg

Wind Spd Definition
km/h
Visibility Definition
km
Stn Press Definition
kPa
Hmdx Definition


Wind Chill Definition


Weather Definition


TIME
00:00 Legend Double Dagger -23.6 -25.9 82 28 18 16.1 100.93   -34 LegendNANA
01:00 Legend Double Dagger -22.2 -24.5 82 30 18 16.1 100.95   -33 LegendNANA
02:00 Legend Double Dagger -21.3 -23.6 82 31 26 16.1 100.99   -33 LegendNANA
03:00 Legend Double Dagger -21.5 -23.8 82 31 24 16.1 101.02   -33 LegendNANA
04:00 Legend Double Dagger -21.5 -23.7 83 31 26 16.1 101.02   -34 LegendNANA
05:00 Legend Double Dagger -19.9 -22.1 83 31 26 16.1 101.07   -32 LegendNANA
06:00 Legend Double Dagger -17.1 -19.3 84 31 24 16.1 101.10   -28 LegendNANA
07:00 Legend Double Dagger -15.7 -17.8 84 32 26 16.1 101.14   -26 LegendNANA
08:00 Legend Double Dagger -16.3 -18.7 82 31 22 16.1 101.16   -26 LegendNANA
09:00 Legend Double Dagger -16.8 -19.3 81 30 26 16.1 101.20   -28 LegendNANA
10:00 Legend Double Dagger -18.4 -21.1 80 30 22 16.1 101.21   -29 LegendNANA
11:00 Legend Double Dagger -20.7 -23.6 78 29 22 16.1 101.24   -32 LegendNANA
12:00 Legend Double Dagger -20.7 -23.6 78 31 24 16.1 101.26   -32 LegendNANA
13:00 Legend Double Dagger -20.4 -23.3 78 30 21 16.1 101.30   -31 LegendNANA
14:00 Legend Double Dagger -20.2 -22.8 80 30 26 16.1 101.35   -32 LegendNANA
15:00 Legend Double Dagger -20.0 -22.5 81 30 22 16.1 101.39   -31 LegendNANA
16:00 Legend Double Dagger -20.1 -22.4 82 29 18 16.1 101.44   -30 LegendNANA
17:00 Legend Double Dagger -18.1 -20.3 83 30 18 16.1 101.46   -28 LegendNANA
18:00 Legend Double Dagger -17.8 -20.0 83 29 18 16.1 101.49   -27 LegendNANA
19:00 Legend Double Dagger -18.8 -20.7 85 29 15 16.1 101.51   -28 LegendNANA
20:00 Legend Double Dagger -20.5 -22.4 85 30 22 16.1 101.53   -32 LegendNANA
21:00 Legend Double Dagger -21.0 -23.0 84 29 21 16.1 101.56   -32 LegendNANA
22:00 Legend Double Dagger -21.1 -23.0 85 30 22 16.1 101.55   -32 LegendNANA
23:00 Legend Double Dagger -21.9 -24.1 83 29 18 16.1 101.58   -32 LegendNANA

Notes on Data Quality.

Legend

  • E = Estimated
  • M = Missing
  • NA = Not Available
  • ‡ = Partner data that is not subject to review by the National Climate Archives
Date modified: